Year,Month,Day,Hour,Minute,Value (Times are PST for temperature in C)
2013,03,19,00,00,1.30
2013,03,19,00,01,1.30
2013,03,19,00,02,1.30
2013,03,19,00,03,1.30
2013,03,19,00,04,1.30
2013,03,19,00,05,1.30
2013,03,19,00,06,1.30
2013,03,19,00,07,1.30
2013,03,19,00,08,1.30
2013,03,19,00,09,1.30
2013,03,19,00,10,1.30
2013,03,19,00,11,1.30
2013,03,19,00,12,1.30
2013,03,19,00,13,1.30
2013,03,19,00,14,1.30
2013,03,19,00,15,1.40
2013,03,19,00,16,1.40
2013,03,19,00,17,1.50
2013,03,19,00,18,1.50
2013,03,19,00,19,1.60
2013,03,19,00,20,1.60
2013,03,19,00,21,1.60
2013,03,19,00,22,1.60
2013,03,19,00,23,1.60
2013,03,19,00,24,1.60
2013,03,19,00,25,1.60
2013,03,19,00,26,1.50
2013,03,19,00,27,1.50
2013,03,19,00,28,1.40
2013,03,19,00,29,1.40
2013,03,19,00,30,1.30
2013,03,19,00,31,1.30
2013,03,19,00,32,1.30
2013,03,19,00,33,1.30
2013,03,19,00,34,1.30
2013,03,19,00,35,1.30
2013,03,19,00,36,1.30
2013,03,19,00,37,1.30
2013,03,19,00,38,1.30
2013,03,19,00,39,1.30
2013,03,19,00,40,1.20
2013,03,19,00,41,1.10
2013,03,19,00,42,1.10
2013,03,19,00,43,1.00
2013,03,19,00,44,1.00
2013,03,19,00,45,0.90
2013,03,19,00,46,0.90
2013,03,19,00,47,0.90
2013,03,19,00,48,0.80
2013,03,19,00,49,0.80
2013,03,19,00,50,0.80
2013,03,19,00,51,0.80
2013,03,19,00,52,0.90
2013,03,19,00,53,0.90
2013,03,19,00,54,0.90
2013,03,19,00,55,0.90
2013,03,19,00,56,0.90
2013,03,19,00,57,0.90
2013,03,19,00,58,0.90
2013,03,19,00,59,0.90
2013,03,19,01,00,0.90
2013,03,19,01,01,0.90
2013,03,19,01,02,0.90
2013,03,19,01,03,0.90
2013,03,19,01,04,0.90
2013,03,19,01,05,0.90
2013,03,19,01,06,0.90
2013,03,19,01,07,0.90
2013,03,19,01,08,0.90
2013,03,19,01,09,0.80
2013,03,19,01,10,0.80
2013,03,19,01,11,0.80
2013,03,19,01,12,0.90
2013,03,19,01,13,0.90
2013,03,19,01,14,0.90
2013,03,19,01,15,0.90
2013,03,19,01,16,0.90
2013,03,19,01,17,0.90
2013,03,19,01,18,1.00
2013,03,19,01,19,1.00
2013,03,19,01,20,0.90
2013,03,19,01,21,0.90
2013,03,19,01,22,0.90
2013,03,19,01,23,0.80
2013,03,19,01,24,0.80
2013,03,19,01,25,0.80
2013,03,19,01,26,0.80
2013,03,19,01,27,0.80
2013,03,19,01,28,0.80
2013,03,19,01,29,0.80
2013,03,19,01,30,0.80
2013,03,19,01,31,0.80
2013,03,19,01,32,0.80
2013,03,19,01,33,0.80
2013,03,19,01,34,0.80
2013,03,19,01,35,0.80
2013,03,19,01,36,0.90
2013,03,19,01,37,0.90
2013,03,19,01,38,0.90
2013,03,19,01,39,0.90
2013,03,19,01,40,1.00
2013,03,19,01,41,1.00
2013,03,19,01,42,1.00
2013,03,19,01,43,1.00
2013,03,19,01,44,1.00
2013,03,19,01,45,1.10
2013,03,19,01,46,1.10
2013,03,19,01,47,1.10
2013,03,19,01,48,1.10
2013,03,19,01,49,1.20
2013,03,19,01,50,1.30
2013,03,19,01,51,1.30
2013,03,19,01,52,1.30
2013,03,19,01,53,1.40
2013,03,19,01,54,1.50
2013,03,19,01,55,1.60
2013,03,19,01,56,1.70
2013,03,19,01,57,1.70
2013,03,19,01,58,1.70
2013,03,19,01,59,1.70
2013,03,19,02,00,1.60
2013,03,19,02,01,1.50
2013,03,19,02,02,1.50
2013,03,19,02,03,1.40
2013,03,19,02,04,1.30
2013,03,19,02,05,1.30
2013,03,19,02,06,1.30
2013,03,19,02,07,1.30
2013,03,19,02,08,1.30
2013,03,19,02,09,1.20
2013,03,19,02,10,1.20
2013,03,19,02,11,1.20
2013,03,19,02,12,1.10
2013,03,19,02,13,1.10
2013,03,19,02,14,1.10
2013,03,19,02,15,1.00
2013,03,19,02,16,1.00
2013,03,19,02,17,1.00
2013,03,19,02,18,1.00
2013,03,19,02,19,1.10
2013,03,19,02,20,1.10
2013,03,19,02,21,1.10
2013,03,19,02,22,1.10
2013,03,19,02,23,1.10
2013,03,19,02,24,1.10
2013,03,19,02,25,1.10
2013,03,19,02,26,1.10
2013,03,19,02,27,1.10
2013,03,19,02,28,1.10
2013,03,19,02,29,1.10
2013,03,19,02,30,1.00
2013,03,19,02,31,1.00
2013,03,19,02,32,1.00
2013,03,19,02,33,1.00
2013,03,19,02,34,0.90
2013,03,19,02,35,0.90
2013,03,19,02,36,0.90
2013,03,19,02,37,0.90
2013,03,19,02,38,0.90
2013,03,19,02,39,0.90
2013,03,19,02,40,0.90
2013,03,19,02,41,1.00
2013,03,19,02,42,1.00
2013,03,19,02,43,1.00
2013,03,19,02,44,1.00
2013,03,19,02,45,1.00
2013,03,19,02,46,1.00
2013,03,19,02,47,1.00
2013,03,19,02,48,1.00
2013,03,19,02,49,1.00
2013,03,19,02,50,1.00
2013,03,19,02,51,0.90
2013,03,19,02,52,1.00
2013,03,19,02,53,1.00
2013,03,19,02,54,1.00
2013,03,19,02,55,1.00
2013,03,19,02,56,1.00
2013,03,19,02,57,0.90
2013,03,19,02,58,0.90
2013,03,19,02,59,0.90
2013,03,19,03,00,0.90
2013,03,19,03,01,0.80
2013,03,19,03,02,0.80
2013,03,19,03,03,0.80
2013,03,19,03,04,0.80
2013,03,19,03,05,0.80
2013,03,19,03,06,0.80
2013,03,19,03,07,0.80
2013,03,19,03,08,0.80
2013,03,19,03,09,0.90
2013,03,19,03,10,0.90
2013,03,19,03,11,0.90
2013,03,19,03,12,0.90
2013,03,19,03,13,0.90
2013,03,19,03,14,0.90
2013,03,19,03,15,0.90
2013,03,19,03,16,0.90
2013,03,19,03,17,0.90
2013,03,19,03,18,0.90
2013,03,19,03,19,0.90
2013,03,19,03,20,0.90
2013,03,19,03,21,0.90
2013,03,19,03,22,0.90
2013,03,19,03,23,1.00
2013,03,19,03,24,1.00
2013,03,19,03,25,1.00
2013,03,19,03,26,1.00
2013,03,19,03,27,1.00
2013,03,19,03,28,0.90
2013,03,19,03,29,0.90
2013,03,19,03,30,0.90
2013,03,19,03,31,0.90
2013,03,19,03,32,0.80
2013,03,19,03,33,0.80
2013,03,19,03,34,0.80
2013,03,19,03,35,0.80
2013,03,19,03,36,0.80
2013,03,19,03,37,0.80
2013,03,19,03,38,0.80
2013,03,19,03,39,0.80
2013,03,19,03,40,0.90
2013,03,19,03,41,0.90
2013,03,19,03,42,0.90
2013,03,19,03,43,0.90
2013,03,19,03,44,0.90
2013,03,19,03,45,0.90
2013,03,19,03,46,0.90
2013,03,19,03,47,0.90
2013,03,19,03,48,0.90
2013,03,19,03,49,0.90
2013,03,19,03,50,0.90
2013,03,19,03,51,0.90
2013,03,19,03,52,1.00
2013,03,19,03,53,1.00
2013,03,19,03,54,1.10
2013,03,19,03,55,1.10
2013,03,19,03,56,1.10
2013,03,19,03,57,1.10
2013,03,19,03,58,1.10
2013,03,19,03,59,1.10
2013,03,19,04,00,1.10
2013,03,19,04,01,1.10
2013,03,19,04,02,1.10
2013,03,19,04,03,1.10
2013,03,19,04,04,1.10
2013,03,19,04,05,1.10
2013,03,19,04,06,1.10
2013,03,19,04,07,1.10
2013,03,19,04,08,1.10
2013,03,19,04,09,1.10
2013,03,19,04,10,1.10
2013,03,19,04,11,1.10
2013,03,19,04,12,1.10
2013,03,19,04,13,1.10
2013,03,19,04,14,1.10
2013,03,19,04,15,1.10
2013,03,19,04,16,1.10
2013,03,19,04,17,1.10
2013,03,19,04,18,1.10
2013,03,19,04,19,1.20
2013,03,19,04,20,1.20
2013,03,19,04,21,1.20
2013,03,19,04,22,1.20
2013,03,19,04,23,1.30
2013,03,19,04,24,1.30
2013,03,19,04,25,1.30
2013,03,19,04,26,1.30
2013,03,19,04,27,1.30
2013,03,19,04,28,1.40
2013,03,19,04,29,1.40
2013,03,19,04,30,1.40
2013,03,19,04,31,1.50
2013,03,19,04,32,1.50
2013,03,19,04,33,1.50
2013,03,19,04,34,1.60
2013,03,19,04,35,1.60
2013,03,19,04,36,1.60
2013,03,19,04,37,1.60
2013,03,19,04,38,1.60
2013,03,19,04,39,1.70
2013,03,19,04,40,1.70
2013,03,19,04,41,1.70
2013,03,19,04,42,1.70
2013,03,19,04,43,1.70
2013,03,19,04,44,1.70
2013,03,19,04,45,1.70
2013,03,19,04,46,1.70
2013,03,19,04,47,1.70
2013,03,19,04,48,1.70
2013,03,19,04,49,1.70
2013,03,19,04,50,1.70
2013,03,19,05,41,2.10
2013,03,19,05,42,2.10
2013,03,19,05,43,2.20
2013,03,19,05,44,2.20
2013,03,19,05,45,2.20
2013,03,19,05,46,2.30
2013,03,19,05,47,2.30
2013,03,19,05,48,2.30
2013,03,19,05,49,2.30
2013,03,19,05,50,2.30
2013,03,19,05,51,2.30
2013,03,19,05,52,2.30
2013,03,19,05,53,2.30
2013,03,19,05,54,2.30
2013,03,19,05,55,2.30
2013,03,19,05,56,2.30
2013,03,19,05,57,2.20
2013,03,19,05,58,2.20
2013,03,19,05,59,2.20
2013,03,19,06,00,2.20
2013,03,19,06,01,2.20
2013,03,19,06,02,2.20
2013,03,19,06,03,2.20
2013,03,19,06,04,2.20
2013,03,19,06,05,2.20
2013,03,19,06,06,2.20
2013,03,19,06,07,2.20
2013,03,19,06,08,2.20
2013,03,19,06,09,2.20
2013,03,19,06,10,2.20
2013,03,19,06,11,2.20
2013,03,19,06,12,2.20
2013,03,19,06,13,2.20
2013,03,19,06,14,2.20
2013,03,19,06,15,2.20
2013,03,19,06,16,2.20
2013,03,19,06,17,2.20
2013,03,19,06,18,2.20
2013,03,19,06,19,2.30
2013,03,19,06,20,2.30
2013,03,19,06,21,2.30
2013,03,19,06,22,2.30
2013,03,19,06,23,2.30
2013,03,19,06,24,2.30
2013,03,19,06,25,2.30
2013,03,19,06,26,2.30
2013,03,19,06,27,2.30
2013,03,19,06,28,2.30
2013,03,19,06,29,2.30
2013,03,19,06,30,2.30
2013,03,19,06,31,2.30
2013,03,19,06,32,2.30
2013,03,19,06,33,2.30
2013,03,19,06,34,2.30
2013,03,19,06,35,2.30
2013,03,19,06,36,2.40
2013,03,19,06,37,2.40
2013,03,19,06,38,2.40
2013,03,19,06,39,2.40
2013,03,19,06,40,2.40
2013,03,19,06,41,2.40
2013,03,19,06,42,2.40
2013,03,19,06,43,2.40
2013,03,19,06,44,2.40
2013,03,19,06,45,2.40
2013,03,19,06,46,2.40
2013,03,19,06,47,2.40
2013,03,19,06,48,2.40
2013,03,19,06,49,2.40
2013,03,19,06,50,2.40
2013,03,19,06,51,2.30
2013,03,19,06,52,2.30
2013,03,19,06,53,2.30
2013,03,19,06,54,2.30
2013,03,19,06,55,2.30
2013,03,19,06,56,2.30
2013,03,19,06,57,2.30
2013,03,19,06,58,2.30
2013,03,19,06,59,2.30
2013,03,19,07,00,2.30
2013,03,19,07,01,2.30
2013,03,19,07,02,2.30
2013,03,19,07,03,2.30
2013,03,19,07,04,2.30
2013,03,19,07,05,2.30
2013,03,19,07,06,2.30
2013,03,19,07,07,2.30
2013,03,19,07,08,2.30
2013,03,19,07,09,2.30
2013,03,19,07,10,2.30
2013,03,19,07,11,2.30
2013,03,19,07,12,2.30
2013,03,19,07,13,2.30
2013,03,19,07,14,2.30
2013,03,19,07,15,2.30
2013,03,19,07,16,2.30
2013,03,19,07,17,2.30
2013,03,19,07,18,2.30
2013,03,19,07,19,2.30
2013,03,19,07,20,2.30
2013,03,19,07,21,2.30
2013,03,19,07,22,2.30
2013,03,19,07,23,2.30
2013,03,19,07,24,2.30
2013,03,19,07,25,2.30
2013,03,19,07,26,2.30
2013,03,19,07,27,2.30
2013,03,19,07,28,2.40
2013,03,19,07,29,2.40
2013,03,19,07,30,2.50
2013,03,19,07,31,2.60
2013,03,19,07,32,2.60
2013,03,19,07,33,2.60
2013,03,19,07,34,2.70
2013,03,19,07,35,2.70
2013,03,19,07,36,2.80
2013,03,19,07,37,2.80
2013,03,19,07,38,2.80
2013,03,19,07,39,2.80
2013,03,19,07,40,2.80
2013,03,19,07,41,2.80
2013,03,19,07,42,2.80
2013,03,19,07,43,2.80
2013,03,19,07,44,2.80
2013,03,19,07,45,2.80
2013,03,19,07,46,2.80
2013,03,19,07,47,2.80
2013,03,19,07,48,2.80
2013,03,19,07,49,2.80
2013,03,19,07,50,2.80
2013,03,19,07,51,2.80
2013,03,19,07,52,2.80
2013,03,19,07,53,2.80
2013,03,19,07,54,2.80
2013,03,19,07,55,2.80
2013,03,19,07,56,2.80
2013,03,19,07,57,2.80
2013,03,19,07,58,2.80
2013,03,19,07,59,2.80
2013,03,19,08,00,2.80
2013,03,19,08,01,2.80
2013,03,19,08,02,2.70
2013,03,19,08,03,2.70
2013,03,19,08,04,2.80
2013,03,19,08,05,2.80
2013,03,19,08,06,2.80
2013,03,19,08,07,2.80
2013,03,19,08,08,2.80
2013,03,19,08,09,2.80
2013,03,19,08,10,2.80
2013,03,19,08,11,2.90
2013,03,19,08,12,2.80
2013,03,19,08,13,2.80
2013,03,19,08,14,2.80
2013,03,19,08,15,2.80
2013,03,19,08,16,2.80
2013,03,19,08,17,2.80
2013,03,19,08,18,2.80
2013,03,19,08,19,2.80
2013,03,19,08,20,2.80
2013,03,19,08,21,2.80
2013,03,19,08,22,2.80
2013,03,19,08,23,2.80
2013,03,19,08,24,2.80
2013,03,19,08,25,2.80
2013,03,19,08,26,2.80
2013,03,19,08,27,2.80
2013,03,19,08,28,2.80
2013,03,19,08,29,2.80
2013,03,19,08,30,2.80
2013,03,19,08,31,2.80
2013,03,19,08,32,2.80
2013,03,19,08,33,2.80
2013,03,19,08,34,2.80
2013,03,19,08,35,2.80
2013,03,19,08,36,2.80
2013,03,19,08,37,2.80
2013,03,19,08,38,2.80
2013,03,19,08,39,2.80
2013,03,19,08,40,2.80
2013,03,19,08,41,2.80
2013,03,19,08,42,2.80
2013,03,19,08,43,2.90
2013,03,19,08,44,2.90
2013,03,19,08,45,2.90
2013,03,19,08,46,2.90
2013,03,19,08,47,3.00
2013,03,19,08,48,3.00
2013,03,19,08,49,3.10
2013,03,19,08,50,3.10
2013,03,19,08,51,3.10
2013,03,19,08,52,3.20
2013,03,19,08,53,3.20
2013,03,19,08,54,3.30
2013,03,19,08,55,3.30
2013,03,19,08,56,3.30
2013,03,19,08,57,3.40
2013,03,19,08,58,3.40
2013,03,19,08,59,3.50
2013,03,19,09,00,3.50
2013,03,19,09,01,3.50
2013,03,19,09,02,3.60
2013,03,19,09,03,3.60
2013,03,19,09,04,3.60
2013,03,19,09,05,3.60
2013,03,19,09,06,3.60
2013,03,19,09,07,3.60
2013,03,19,09,08,3.60
2013,03,19,09,09,3.60
2013,03,19,09,10,3.70
2013,03,19,09,11,3.70
2013,03,19,09,12,3.70
2013,03,19,09,13,3.70
2013,03,19,09,14,3.80
2013,03,19,09,15,3.80
2013,03,19,09,16,3.80
2013,03,19,09,17,3.80
2013,03,19,09,18,3.80
2013,03,19,09,19,3.80
2013,03,19,09,20,3.80
2013,03,19,09,21,3.80
2013,03,19,09,22,3.80
2013,03,19,09,23,3.80
2013,03,19,09,24,3.80
2013,03,19,09,25,3.80
2013,03,19,09,26,3.90
2013,03,19,09,27,3.90
2013,03,19,09,28,3.90
2013,03,19,09,29,3.90
2013,03,19,09,30,3.90
2013,03,19,09,31,3.90
2013,03,19,09,32,3.90
2013,03,19,09,33,4.00
2013,03,19,09,34,4.00
2013,03,19,09,35,4.10
2013,03,19,09,36,4.10
2013,03,19,09,37,4.00
2013,03,19,09,38,4.00
2013,03,19,09,39,4.00
2013,03,19,09,40,4.10
2013,03,19,09,41,4.10
2013,03,19,09,42,4.10
2013,03,19,09,43,4.20
2013,03,19,09,44,4.20
2013,03,19,09,45,4.20
2013,03,19,09,46,4.20
2013,03,19,09,47,4.30
2013,03,19,09,48,4.30
2013,03,19,09,49,4.30
2013,03,19,09,50,4.30
2013,03,19,09,51,4.30
2013,03,19,09,52,4.30
2013,03,19,09,53,4.30
2013,03,19,09,54,4.30
2013,03,19,09,55,4.30
2013,03,19,09,56,4.30
2013,03,19,09,57,4.30
2013,03,19,09,58,4.30
2013,03,19,09,59,4.30
2013,03,19,10,00,4.30
2013,03,19,10,01,4.30
2013,03,19,10,02,4.30
2013,03,19,10,03,4.30
2013,03,19,10,04,4.30
2013,03,19,10,05,4.30
2013,03,19,10,06,4.30
2013,03,19,10,07,4.40
2013,03,19,10,08,4.40
2013,03,19,10,09,4.40
2013,03,19,10,10,4.40
2013,03,19,10,11,4.40
2013,03,19,10,12,4.40
2013,03,19,10,13,4.50
2013,03,19,10,14,4.50
2013,03,19,10,15,4.60
2013,03,19,10,16,4.60
2013,03,19,10,17,4.70
2013,03,19,10,18,4.80
2013,03,19,10,19,4.80
2013,03,19,10,20,4.80
2013,03,19,10,21,4.70
2013,03,19,10,22,4.70
2013,03,19,10,23,4.80
2013,03,19,10,24,4.80
2013,03,19,10,25,4.70
2013,03,19,10,26,4.70
2013,03,19,10,27,4.80
2013,03,19,10,28,4.80
2013,03,19,10,29,4.80
2013,03,19,10,30,4.70
2013,03,19,10,31,4.80
2013,03,19,10,32,4.70
2013,03,19,10,33,4.70
2013,03,19,10,34,4.70
2013,03,19,10,35,4.80
2013,03,19,10,36,4.80
2013,03,19,10,37,4.80
2013,03,19,10,38,4.80
2013,03,19,10,39,4.80
2013,03,19,10,40,4.80
2013,03,19,10,41,4.70
2013,03,19,10,42,4.80
2013,03,19,10,43,4.70
2013,03,19,10,44,4.70
2013,03,19,10,45,4.70
2013,03,19,10,46,4.70
2013,03,19,10,47,4.70
2013,03,19,10,48,4.80
2013,03,19,10,49,4.80
2013,03,19,10,50,4.80
2013,03,19,10,51,4.70
2013,03,19,10,52,4.70
2013,03,19,10,53,4.70
2013,03,19,10,54,4.70
2013,03,19,10,55,4.80
2013,03,19,10,56,4.80
2013,03,19,10,57,4.80
2013,03,19,10,58,4.80
2013,03,19,10,59,4.80
2013,03,19,11,00,4.80
2013,03,19,11,01,4.90
2013,03,19,11,02,4.90
2013,03,19,11,03,4.90
2013,03,19,11,04,4.90
2013,03,19,11,05,5.00
2013,03,19,11,06,5.00
2013,03,19,11,07,5.00
2013,03,19,11,08,5.00
2013,03,19,11,09,5.00
2013,03,19,11,10,5.00
2013,03,19,11,11,5.10
2013,03,19,11,12,5.10
2013,03,19,11,13,5.00
2013,03,19,11,14,5.00
2013,03,19,11,15,5.00
2013,03,19,11,16,5.00
2013,03,19,11,17,5.00
2013,03,19,11,18,5.00
2013,03,19,11,19,5.00
2013,03,19,11,20,5.00
2013,03,19,11,21,5.00
2013,03,19,11,22,5.10
2013,03,19,11,23,5.10
2013,03,19,11,24,5.10
2013,03,19,11,25,5.20
2013,03,19,11,26,5.20
2013,03,19,11,27,5.20
2013,03,19,11,28,5.20
2013,03,19,11,29,5.30
2013,03,19,11,30,5.30
2013,03,19,11,31,5.40
2013,03,19,11,32,5.30
2013,03,19,11,33,5.30
2013,03,19,11,34,5.30
2013,03,19,11,35,5.30
2013,03,19,11,36,5.30
2013,03,19,11,37,5.30
2013,03,19,11,38,5.30
2013,03,19,11,39,5.30
2013,03,19,11,40,5.30
2013,03,19,11,41,5.30
2013,03,19,11,42,5.40
2013,03,19,11,43,5.40
2013,03,19,11,44,5.40
2013,03,19,11,45,5.40
2013,03,19,11,46,5.40
2013,03,19,11,47,5.30
2013,03,19,11,48,5.30
2013,03,19,11,49,5.20
2013,03,19,11,50,5.30
2013,03,19,11,51,5.30
2013,03,19,11,52,5.40
2013,03,19,11,53,5.40
2013,03,19,11,54,5.40
2013,03,19,11,55,5.40
2013,03,19,11,56,5.40
2013,03,19,11,57,5.40
2013,03,19,11,58,5.50
2013,03,19,11,59,5.50
2013,03,19,12,00,5.60
2013,03,19,12,01,5.50
2013,03,19,12,02,5.50
2013,03,19,12,03,5.50
2013,03,19,12,04,5.40
2013,03,19,12,05,5.40
2013,03,19,12,06,5.40
2013,03,19,12,07,5.50
2013,03,19,12,08,5.50
2013,03,19,12,09,5.50
2013,03,19,12,10,5.50
2013,03,19,12,11,5.50
2013,03,19,12,12,5.50
2013,03,19,12,13,5.50
2013,03,19,12,14,5.60
2013,03,19,12,15,5.60
2013,03,19,12,16,5.70
2013,03,19,12,17,5.70
2013,03,19,12,18,5.60
2013,03,19,12,19,5.60
2013,03,19,12,20,5.60
2013,03,19,12,21,5.70
2013,03,19,12,22,5.70
2013,03,19,12,23,5.70
2013,03,19,12,24,5.60
2013,03,19,12,25,5.60
2013,03,19,12,26,5.70
2013,03,19,12,27,5.70
2013,03,19,12,28,5.70
2013,03,19,12,29,5.70
2013,03,19,12,30,5.70
2013,03,19,12,31,5.70
2013,03,19,12,32,5.70
2013,03,19,12,33,5.80
2013,03,19,12,34,5.70
2013,03,19,12,35,5.70
2013,03,19,12,36,5.70
2013,03,19,12,37,5.70
2013,03,19,12,38,5.70
2013,03,19,12,39,5.80
2013,03,19,12,40,5.80
2013,03,19,12,41,5.80
2013,03,19,12,42,5.80
2013,03,19,12,43,5.80
2013,03,19,12,44,5.80
2013,03,19,12,45,5.80
2013,03,19,12,46,5.80
2013,03,19,12,47,5.80
2013,03,19,12,48,5.90
2013,03,19,12,49,5.90
2013,03,19,12,50,5.90
2013,03,19,12,51,5.90
2013,03,19,12,52,5.90
2013,03,19,12,53,5.90
2013,03,19,12,54,5.90
2013,03,19,12,55,5.90
2013,03,19,12,56,5.90
2013,03,19,12,57,5.90
2013,03,19,12,58,5.90
2013,03,19,12,59,5.90
2013,03,19,13,00,5.90
2013,03,19,13,01,5.80
2013,03,19,13,02,5.80
2013,03,19,13,03,5.80
2013,03,19,13,04,5.80
2013,03,19,13,05,5.80
2013,03,19,13,06,5.70
2013,03,19,13,07,5.70
2013,03,19,13,08,5.60
2013,03,19,13,09,5.60
2013,03,19,13,10,5.60
2013,03,19,13,11,5.60
2013,03,19,13,12,5.60
2013,03,19,13,13,5.70
2013,03,19,13,14,5.60
2013,03,19,13,15,5.60
2013,03,19,13,16,5.60
2013,03,19,13,17,5.60
2013,03,19,13,18,5.60
2013,03,19,13,19,5.60
2013,03,19,13,20,5.60
2013,03,19,13,21,5.60
2013,03,19,13,22,5.70
2013,03,19,13,23,5.70
2013,03,19,13,24,5.70
2013,03,19,13,25,5.80
2013,03,19,13,26,5.80
2013,03,19,13,27,5.80
2013,03,19,13,28,5.80
2013,03,19,13,29,5.80
2013,03,19,13,30,5.80
2013,03,19,13,31,5.80
2013,03,19,13,32,5.80
2013,03,19,13,33,5.80
2013,03,19,13,34,5.80
2013,03,19,13,35,5.80
2013,03,19,13,36,5.90
2013,03,19,13,37,5.90
2013,03,19,13,38,5.90
2013,03,19,13,39,5.80
2013,03,19,13,40,5.80
2013,03,19,13,41,5.80
2013,03,19,13,42,5.90
2013,03,19,13,43,5.90
2013,03,19,13,44,5.90
2013,03,19,13,45,5.80
2013,03,19,13,46,5.90
2013,03,19,13,47,5.90
2013,03,19,13,48,5.90
2013,03,19,13,49,5.90
2013,03,19,13,50,5.90
2013,03,19,13,51,5.90
2013,03,19,13,52,5.90
2013,03,19,13,53,6.00
2013,03,19,13,54,6.10
2013,03,19,13,55,6.10
2013,03,19,13,56,6.10
2013,03,19,13,57,6.10
2013,03,19,13,58,6.10
2013,03,19,13,59,6.10
2013,03,19,14,00,6.10
2013,03,19,14,01,6.20
2013,03,19,14,02,6.20
2013,03,19,14,03,6.20
2013,03,19,14,04,6.10
2013,03,19,14,05,6.20
2013,03,19,14,06,6.20
2013,03,19,14,07,6.10
2013,03,19,14,08,6.10
2013,03,19,14,09,6.00
2013,03,19,14,10,6.10
2013,03,19,14,11,6.10
2013,03,19,14,12,6.10
2013,03,19,14,13,6.10
2013,03,19,14,14,6.20
2013,03,19,14,15,6.20
2013,03,19,14,16,6.30
2013,03,19,14,17,6.20
2013,03,19,14,18,6.20
2013,03,19,14,19,6.20
2013,03,19,14,20,6.20
2013,03,19,14,21,6.20
2013,03,19,14,22,6.30
2013,03,19,14,23,6.30
2013,03,19,14,24,6.20
2013,03,19,14,25,6.20
2013,03,19,14,26,6.20
2013,03,19,14,27,6.20
2013,03,19,14,28,6.20
2013,03,19,14,29,6.20
2013,03,19,14,30,6.30
2013,03,19,14,31,6.30
2013,03,19,14,32,6.30
2013,03,19,14,33,6.30
2013,03,19,14,34,6.30
2013,03,19,14,35,6.30
2013,03,19,14,36,6.40
2013,03,19,14,37,6.40
2013,03,19,14,38,6.40
2013,03,19,14,39,6.40
2013,03,19,14,40,6.40
2013,03,19,14,41,6.40
2013,03,19,14,42,6.40
2013,03,19,14,43,6.40
2013,03,19,14,44,6.50
2013,03,19,14,45,6.50
2013,03,19,14,46,6.60
2013,03,19,14,47,6.60
2013,03,19,14,48,6.60
2013,03,19,14,49,6.60
2013,03,19,14,50,6.60
2013,03,19,14,51,6.60
2013,03,19,14,52,6.60
2013,03,19,14,53,6.70
2013,03,19,14,54,6.70
2013,03,19,14,55,6.70
2013,03,19,14,56,6.80
2013,03,19,14,57,6.80
2013,03,19,14,58,6.80
2013,03,19,14,59,6.80
2013,03,19,15,00,6.80
2013,03,19,15,01,6.80
2013,03,19,15,02,6.80
2013,03,19,15,03,6.90
2013,03,19,15,04,6.90
2013,03,19,15,05,7.00
2013,03,19,15,06,7.00
2013,03,19,15,07,7.00
2013,03,19,15,08,7.00
2013,03,19,15,09,7.00
2013,03,19,15,10,7.00
2013,03,19,15,11,7.10
2013,03,19,15,12,7.10
2013,03,19,15,13,7.10
2013,03,19,15,14,7.10
2013,03,19,15,15,7.10
2013,03,19,15,16,7.10
2013,03,19,15,17,7.10
2013,03,19,15,18,7.10
2013,03,19,15,19,7.10
2013,03,19,15,20,7.10
2013,03,19,15,21,7.10
2013,03,19,15,22,7.10
2013,03,19,15,23,7.10
2013,03,19,15,24,7.20
2013,03,19,15,25,7.20
2013,03,19,15,26,7.20
2013,03,19,15,27,7.20
2013,03,19,15,28,7.30
2013,03,19,15,29,7.30
2013,03,19,15,30,7.30
2013,03,19,15,31,7.20
2013,03,19,15,32,7.20
2013,03,19,15,33,7.20
2013,03,19,15,34,7.20
2013,03,19,15,35,7.20
2013,03,19,15,36,7.20
2013,03,19,15,37,7.20
2013,03,19,15,38,7.20
2013,03,19,15,39,7.20
2013,03,19,15,40,7.30
2013,03,19,15,41,7.30
2013,03,19,15,42,7.30
2013,03,19,15,43,7.30
2013,03,19,15,44,7.30
2013,03,19,15,45,7.30
2013,03,19,15,46,7.30
2013,03,19,15,47,7.30
2013,03,19,15,48,7.30
2013,03,19,15,49,7.30
2013,03,19,15,50,7.30
2013,03,19,15,51,7.30
2013,03,19,15,52,7.30
2013,03,19,15,53,7.30
2013,03,19,15,54,7.30
2013,03,19,15,55,7.30
2013,03,19,15,56,7.40
2013,03,19,15,57,7.40
2013,03,19,15,58,7.40
2013,03,19,15,59,7.40
2013,03,19,16,00,7.40
2013,03,19,16,01,7.40
2013,03,19,16,02,7.40
2013,03,19,16,03,7.40
2013,03,19,16,04,7.40
2013,03,19,16,05,7.50
2013,03,19,16,06,7.50
2013,03,19,16,07,7.50
2013,03,19,16,08,7.50
2013,03,19,16,09,7.40
2013,03,19,16,10,7.40
2013,03,19,16,11,7.30
2013,03,19,16,12,7.30
2013,03,19,16,13,7.30
2013,03,19,16,14,7.30
2013,03,19,16,15,7.30
2013,03,19,16,16,7.30
2013,03,19,16,17,7.30
2013,03,19,16,18,7.30
2013,03,19,16,19,7.30
2013,03,19,16,20,7.30
2013,03,19,16,21,7.20
2013,03,19,16,22,7.20
2013,03,19,16,23,7.20
2013,03,19,16,24,7.20
2013,03,19,16,25,7.30
2013,03,19,16,26,7.30
2013,03,19,16,27,7.30
2013,03,19,16,28,7.30
2013,03,19,16,29,7.30
2013,03,19,16,30,7.30
2013,03,19,16,31,7.20
2013,03,19,16,32,7.20
2013,03,19,16,33,7.20
2013,03,19,16,34,7.20
2013,03,19,16,35,7.30
2013,03,19,16,36,7.30
2013,03,19,16,37,7.30
2013,03,19,16,38,7.30
2013,03,19,16,39,7.30
2013,03,19,16,40,7.30
2013,03,19,16,41,7.40
2013,03,19,16,42,7.40
2013,03,19,16,43,7.40
2013,03,19,16,44,7.40
2013,03,19,16,45,7.40
2013,03,19,16,46,7.40
2013,03,19,16,47,7.40
2013,03,19,16,48,7.40
2013,03,19,16,49,7.40
2013,03,19,16,50,7.40
2013,03,19,16,51,7.40
2013,03,19,16,52,7.40
2013,03,19,16,53,7.40
2013,03,19,16,54,7.40
2013,03,19,16,55,7.50
2013,03,19,16,56,7.50
2013,03,19,16,57,7.40
2013,03,19,16,58,7.40
2013,03,19,16,59,7.40
2013,03,19,17,00,7.40
2013,03,19,17,01,7.40
2013,03,19,17,02,7.30
2013,03,19,17,03,7.30
2013,03,19,17,04,7.30
2013,03,19,17,05,7.20
2013,03,19,17,06,7.20
2013,03,19,17,07,7.20
2013,03,19,17,08,7.20
2013,03,19,17,09,7.20
2013,03,19,17,10,7.10
2013,03,19,17,11,7.10
2013,03,19,17,12,7.10
2013,03,19,17,13,7.00
2013,03,19,17,14,7.00
2013,03,19,17,15,7.00
2013,03,19,17,16,6.90
2013,03,19,17,17,6.90
2013,03,19,17,18,6.80
2013,03,19,17,19,6.80
2013,03,19,17,20,6.80
2013,03,19,17,21,6.70
2013,03,19,17,22,6.60
2013,03,19,17,23,6.60
2013,03,19,17,24,6.50
2013,03,19,17,25,6.50
2013,03,19,17,26,6.40
2013,03,19,17,27,6.40
2013,03,19,17,28,6.30
2013,03,19,17,29,6.20
2013,03,19,17,30,6.20
2013,03,19,17,31,6.10
2013,03,19,17,32,6.10
2013,03,19,17,33,6.00
2013,03,19,17,34,6.00
2013,03,19,17,35,5.90
2013,03,19,17,36,5.90
2013,03,19,17,37,5.80
2013,03,19,17,38,5.80
2013,03,19,17,39,5.70
2013,03,19,17,40,5.60
2013,03,19,17,41,5.50
2013,03,19,17,42,5.50
2013,03,19,17,43,5.40
2013,03,19,17,44,5.40
2013,03,19,17,45,5.30
2013,03,19,17,46,5.30
2013,03,19,17,47,5.20
2013,03,19,17,48,5.20
2013,03,19,17,49,5.10
2013,03,19,17,50,5.10
2013,03,19,17,51,5.00
2013,03,19,17,52,4.90
2013,03,19,17,53,4.90
2013,03,19,17,54,4.90
2013,03,19,17,55,4.80
2013,03,19,17,56,4.80
2013,03,19,17,57,4.80
2013,03,19,17,58,4.80
2013,03,19,17,59,4.70
2013,03,19,18,00,4.70
2013,03,19,18,01,4.70
2013,03,19,18,02,4.60
2013,03,19,18,03,4.60
2013,03,19,18,04,4.50
2013,03,19,18,05,4.50
2013,03,19,18,06,4.50
2013,03,19,18,07,4.50
2013,03,19,18,08,4.40
2013,03,19,18,09,4.40
2013,03,19,18,10,4.40
2013,03,19,18,11,4.30
2013,03,19,18,12,4.30
2013,03,19,18,13,4.30
2013,03,19,18,14,4.30
2013,03,19,18,15,4.20
2013,03,19,18,16,4.20
2013,03,19,18,17,4.20
2013,03,19,18,18,4.20
2013,03,19,18,19,4.20
2013,03,19,18,20,4.10
2013,03,19,18,21,4.10
2013,03,19,18,22,4.10
2013,03,19,18,23,4.10
2013,03,19,18,24,4.10
2013,03,19,18,25,4.10
2013,03,19,18,26,4.10
2013,03,19,18,27,4.10
2013,03,19,18,28,4.10
2013,03,19,18,29,4.10
2013,03,19,18,30,4.10
2013,03,19,18,31,4.10
2013,03,19,18,32,4.10
2013,03,19,18,33,4.10
2013,03,19,18,34,4.20
2013,03,19,18,35,4.20
2013,03,19,18,36,4.20
2013,03,19,18,37,4.20
2013,03,19,18,38,4.20
2013,03,19,18,39,4.20
2013,03,19,18,40,4.20
2013,03,19,18,41,4.30
2013,03,19,18,42,4.30
2013,03,19,18,43,4.30
2013,03,19,18,44,4.30
2013,03,19,18,45,4.30
2013,03,19,18,46,4.30
2013,03,19,18,47,4.30
2013,03,19,18,48,4.30
2013,03,19,18,49,4.30
2013,03,19,18,50,4.30
2013,03,19,18,51,4.30
2013,03,19,18,52,4.30
2013,03,19,18,53,4.30
2013,03,19,18,54,4.30
2013,03,19,18,55,4.30
2013,03,19,18,56,4.30